CW2553 Weather Reports


time (UTC)temp
C
wind
direction
speed
KPH
gust
KPH
rain 1hr
cm
rain 24hr
cm
rain mn
cm
humidity
%
barometer
mb
20260507221558 21 335 1.6 3.2 0.00 0.00 0.00 59 1015.4
20260507221055 21 290 3.2 4.8 0.00 0.00 0.00 60 1015.3
20260507220552 20 288 0.0 0.0 0.00 0.00 0.00 61 1015.6
20260507220049 20 19 4.8 4.8 0.00 0.00 0.00 60 1015.4
20260507215545 21 310 4.8 4.8 0.00 0.00 0.00 59 1015.6
20260507215044 20 300 4.8 8.0 0.00 0.00 0.00 60 1015.5
20260507214541 20 278 4.8 4.8 0.00 0.00 0.00 60 1015.5
20260507214036 20 330 1.6 1.6 0.00 0.00 0.00 61 1015.9
20260507213533 20 287 1.6 3.2 0.00 0.00 0.00 60 1015.8
20260507213030 20 281 4.8 4.8 0.00 0.00 0.00 61 1016.1
20260507212526 20 287 0.0 1.6 0.00 0.00 0.00 58 1015.9
20260507212023 20 288 1.6 3.2 0.00 0.00 0.00 63 1016.1
20260507211520 20 286 4.8 4.8 0.00 0.00 0.00 64 1016.1
20260507211016 20 309 0.0 1.6 0.00 0.00 0.00 64 1016.0
20260507210513 19 305 1.6 1.6 0.00 0.00 0.00 64 1016.1
20260507210010 20 297 1.6 1.6 0.00 0.00 0.00 64 1016.2
20260507205507 19 338 3.2 3.2 0.00 0.00 0.00 65 1016.3
20260507205003 19 313 4.8 4.8 0.00 0.00 0.00 64 1016.4
20260507204459 20 278 1.6 3.2 0.00 0.00 0.00 64 1016.4
20260507203957 18 183 0.0 1.6 0.00 0.00 0.00 70 1016.2
20260507203455 18 321 4.8 4.8 0.00 0.00 0.00 68 1016.4
20260507202951 19 110 3.2 3.2 0.00 0.00 0.00 68 1016.5
20260507202447 19 313 1.6 3.2 0.00 0.00 0.00 64 1016.5
20260507201943 18 334 0.0 1.6 0.00 0.00 0.00 71 1016.5
20260507201438 19 342 1.6 1.6 0.00 0.00 0.00 71 1016.7
20260507200936 20 295 1.6 1.6 0.00 0.00 0.00 65 1016.5
20260507200431 20 93 3.2 4.8 0.00 0.00 0.00 66 1016.7
20260507195927 19 32 0.0 0.0 0.00 0.00 0.00 67 1016.8
20260507195425 19 297 0.0 0.0 0.00 0.00 0.00 65 1016.8
20260507194922 18 298 0.0 1.6 0.00 0.00 0.00 70 1017.0
20260507194418 18 299 1.6 1.6 0.00 0.00 0.00 71 1016.9
20260507193915 18 307 3.2 4.8 0.00 0.00 0.00 71 1016.9
20260507193412 18 298 1.6 3.2 0.00 0.00 0.00 69 1017.1
20260507192908 18 207 0.0 0.0 0.00 0.00 0.00 69 1017.1
20260507192404 17 10 0.0 1.6 0.00 0.00 0.00 72 1017.2
20260507191901 18 292 1.6 3.2 0.00 0.00 0.00 69 1017.4
20260507191358 18 274 4.8 8.0 0.00 0.00 0.00 67 1017.1
20260507190854 18 127 1.6 1.6 0.00 0.00 0.00 73 1017.1
20260507190352 18 321 1.6 1.6 0.00 0.00 0.00 68 1017.2
20260507185851 18 300 1.6 1.6 0.00 0.00 0.00 69 1017.3
20260507185348 18 349 0.0 1.6 0.00 0.00 0.00 69 1017.4
20260507184845 18 303 1.6 1.6 0.00 0.00 0.00 72 1017.5
20260507184343 17 310 1.6 1.6 0.00 0.00 0.00 73 1017.4
20260507183839 17 297 1.6 1.6 0.00 0.00 0.00 73 1017.3
20260507183336 16 294 1.6 1.6 0.00 0.00 0.00 75 1017.7
20260507182834 17 289 3.2 3.2 0.00 0.00 0.00 72 1017.6
20260507182329 17 293 1.6 1.6 0.00 0.00 0.00 73 1017.6
20260507181826 17 300 1.6 1.6 0.00 0.00 0.00 74 1017.8
20260507181322 17 297 3.2 3.2 0.00 0.00 0.00 73 1017.4
20260507180819 17 295 3.2 3.2 0.00 0.00 0.00 73 1017.6
20260507180316 16 285 1.6 3.2 0.00 0.00 0.00 75 1017.7
20260507175811 17 296 3.2 3.2 0.00 0.00 0.00 74 1017.8
20260507175309 17 289 3.2 3.2 0.00 0.00 0.00 75 1017.7
20260507174806 16 294 3.2 3.2 0.00 0.00 0.00 75 1017.8
20260507174304 16 318 1.6 1.6 0.00 0.00 0.00 77 1017.7
20260507173801 16 292 1.6 1.6 0.00 0.00 0.00 76 1017.7
20260507173258 16 304 1.6 1.6 0.00 0.00 0.00 74 1017.8
20260507172754 15 313 0.0 0.0 0.00 0.00 0.00 78 1017.8
20260507172251 15 333 1.6 3.2 0.00 0.00 0.00 79 1017.6
20260507171747 16 326 1.6 1.6 0.00 0.00 0.00 76 1017.8
20260507171244 15 103 1.6 1.6 0.00 0.00 0.00 78 1017.8
20260507170741 15 91 1.6 1.6 0.00 0.00 0.00 78 1017.9
20260507170237 15 44 1.6 1.6 0.00 0.00 0.00 84 1017.8
20260507165733 13 288 3.2 3.2 0.00 0.00 0.00 83 1018.1
20260507165229 13 17 0.0 0.0 0.00 0.00 0.00 84 1017.9
20260507164726 13 338 3.2 3.2 0.00 0.00 0.00 85 1017.6
20260507164223 13 338 0.0 1.6 0.00 0.00 0.00 84 1017.6
20260507163720 13 324 0.0 0.0 0.00 0.00 0.00 83 1018.0
20260507163218 15 102 1.6 3.2 0.00 0.00 0.00 81 1018.1
20260507162713 15 91 0.0 0.0 0.00 0.00 0.00 80 1017.8
20260507162210 15 131 1.6 3.2 0.00 0.00 0.00 82 1018.2
20260507161706 14 36 0.0 0.0 0.00 0.00 0.00 84 1017.9
20260507161203 13 62 0.0 0.0 0.00 0.00 0.00 84 1017.8
20260507160659 13 56 0.0 1.6 0.00 0.00 0.00 85 1018.1
20260507160156 13 88 1.6 1.6 0.00 0.00 0.00 85 1018.2
20260507155651 12 76 1.6 1.6 0.00 0.00 0.00 88 1018.1
20260507155142 12 37 0.0 0.0 0.00 0.00 0.00 87 1018.1
20260507154639 12 29 0.0 0.0 0.00 0.00 0.00 88 1018.0
20260507154137 12 132 1.6 1.6 0.00 0.00 0.00 88 1018.1
20260507153633 13 138 0.0 0.0 0.00 0.00 0.00 88 1018.2
20260507153129 12 13 0.0 0.0 0.00 0.00 0.00 88 1018.1
20260507152626 12 347 0.0 0.0 0.00 0.00 0.00 89 1018.2
20260507152122 12 348 0.0 1.6 0.00 0.00 0.00 88 1018.2
20260507151618 12 334 0.0 0.0 0.00 0.00 0.00 89 1018.3
20260507151115 11 334 1.6 1.6 0.00 0.00 0.00 90 1018.2
20260507150612 11 353 1.6 1.6 0.00 0.00 0.00 91 1018.2
20260507150108 11 17 1.6 1.6 0.00 0.00 0.00 92 1018.2
20260507145603 11 15 1.6 1.6 0.00 0.00 0.00 92 1018.3
20260507145101 11 331 0.0 1.6 0.00 0.00 0.00 92 1018.1
20260507144557 11 316 0.0 0.0 0.00 0.00 0.00 93 1018.2
20260507144056 11 316 0.0 0.0 0.00 0.00 0.00 94 1018.4
20260507143552 11 316 0.0 0.0 0.00 0.00 0.00 93 1018.3
20260507143050 11 322 0.0 0.0 0.00 0.00 0.00 94 1018.1
20260507142549 11 316 0.0 1.6 0.00 0.00 0.00 94 1018.2
20260507142047 10 308 0.0 0.0 0.00 0.00 0.00 94 1018.3
20260507141543 10 322 0.0 0.0 0.00 0.00 0.00 95 1018.1
20260507141040 10 322 0.0 0.0 0.00 0.00 0.00 95 1018.1
20260507140537 10 322 0.0 0.0 0.00 0.00 0.00 95 1018.1
20260507140034 10 322 1.6 1.6 0.00 0.00 0.00 95 1018.0
20260507135531 10 322 0.0 0.0 0.00 0.00 0.00 95 1018.1
20260507135028 10 322 0.0 1.6 0.00 0.00 0.00 95 1018.1
20260507134525 10 322 0.0 0.0 0.00 0.00 0.00 95 1018.2
20260507134020 10 322 0.0 1.6 0.00 0.00 0.00 95 1017.8
20260507133517 10 322 0.0 0.0 0.00 0.00 0.00 95 1018.0
20260507133015 10 323 0.0 0.0 0.00 0.00 0.00 95 1017.9
20260507132511 10 323 0.0 0.0 0.00 0.00 0.00 95 1017.9
20260507132007 10 323 0.0 0.0 0.00 0.00 0.00 95 1017.9
20260507131505 10 323 0.0 0.0 0.00 0.00 0.00 95 1017.8
20260507131001 10 323 0.0 0.0 0.00 0.00 0.00 95 1018.1
20260507130458 10 323 0.0 0.0 0.00 0.00 0.00 95 1017.8
20260507125957 10 323 0.0 0.0 0.00 0.00 0.00 95 1018.0
20260507125455 10 323 0.0 0.0 0.00 0.00 0.00 95 1018.0
20260507124952 10 323 0.0 0.0 0.00 0.00 0.00 96 1017.9
20260507124448 10 323 0.0 0.0 0.00 0.00 0.00 96 1017.9
20260507123946 10 323 0.0 0.0 0.00 0.00 0.00 96 1017.9
20260507123444 10 323 0.0 0.0 0.00 0.00 0.00 96 1018.1
20260507122940 10 323 1.6 3.2 0.00 0.00 0.00 96 1017.8
20260507122435 10 322 0.0 1.6 0.00 0.00 0.00 96 1018.0
20260507121932 10 323 0.0 0.0 0.00 0.00 0.00 96 1018.1
20260507121427 10 322 0.0 0.0 0.00 0.00 0.00 95 1018.2
20260507120924 10 323 0.0 0.0 0.00 0.00 0.00 95 1018.1
20260507120420 10 325 1.6 1.6 0.00 0.00 0.00 95 1018.1
20260507115917 10 324 0.0 0.0 0.00 0.00 0.00 95 1018.1
20260507115413 10 326 0.0 0.0 0.00 0.00 0.00 95 1018.2
20260507114908 10 326 0.0 0.0 0.00 0.00 0.00 95 1018.6
20260507114406 10 326 0.0 0.0 0.00 0.00 0.00 95 1018.1
20260507113903 10 326 0.0 0.0 0.00 0.00 0.00 95 1018.2
20260507113400 10 326 0.0 0.0 0.00 0.00 0.00 95 1018.5
20260507112857 10 326 0.0 0.0 0.00 0.00 0.00 95 1018.5
20260507112354 10 326 0.0 0.0 0.00 0.00 0.00 96 1018.4
20260507111852 10 326 0.0 0.0 0.00 0.00 0.00 96 1018.6
20260507111348 10 326 0.0 0.0 0.00 0.00 0.00 96 1018.4
20260507110844 10 327 0.0 0.0 0.00 0.00 0.00 95 1018.4
20260507110341 10 327 0.0 0.0 0.00 0.00 0.00 96 1018.5
20260507105838 10 327 0.0 0.0 0.00 0.00 0.00 96 1018.5
20260507105334 10 327 0.0 0.0 0.00 0.00 0.00 96 1018.5
20260507104831 10 327 0.0 0.0 0.00 0.00 0.00 95 1018.4
20260507104328 10 327 0.0 0.0 0.00 0.00 0.00 95 1018.5
20260507103824 10 329 0.0 0.0 0.00 0.00 0.00 95 1018.5
20260507103320 10 329 0.0 0.0 0.00 0.00 0.00 95 1018.5
20260507102817 10 333 0.0 0.0 0.00 0.00 0.00 95 1018.4
20260507102314 10 332 0.0 0.0 0.00 0.00 0.00 94 1018.8
20260507101810 10 333 0.0 0.0 0.00 0.00 0.00 93 1018.7
20260507101305 10 336 0.0 0.0 0.00 0.00 0.00 93 1018.5
20260507100803 10 336 0.0 1.6 0.00 0.00 0.00 93 1018.9
20260507100301 10 337 0.0 0.0 0.00 0.00 0.00 92 1018.9
20260507095758 10 336 1.6 1.6 0.00 0.00 0.00 92 1019.0
20260507095254 11 351 0.0 0.0 0.00 0.00 0.00 92 1018.8
20260507094752 11 334 0.0 0.0 0.00 0.00 0.00 92 1019.0
20260507094248 11 340 0.0 0.0 0.00 0.00 0.00 91 1018.8
20260507093745 11 312 0.0 1.6 0.00 0.00 0.00 91 1019.1
20260507093244 11 312 0.0 0.0 0.00 0.00 0.00 90 1019.2
20260507092741 11 312 0.0 1.6 0.00 0.00 0.00 90 1019.0
20260507092237 11 312 0.0 0.0 0.00 0.00 0.00 90 1019.2
20260507091734 11 312 0.0 0.0 0.00 0.00 0.00 90 1019.1
20260507091230 11 312 0.0 1.6 0.00 0.00 0.00 90 1019.1
20260507090726 11 315 0.0 0.0 0.00 0.00 0.00 90 1019.3
20260507090223 11 315 0.0 0.0 0.00 0.00 0.00 89 1019.2
20260507085720 11 340 0.0 0.0 0.00 0.00 0.00 89 1019.3
20260507085217 11 31 0.0 1.6 0.00 0.00 0.00 89 1019.4
20260507084713 11 348 0.0 1.6 0.00 0.00 0.00 89 1019.3
20260507084210 11 349 0.0 0.0 0.00 0.00 0.00 89 1019.4
20260507083708 11 350 0.0 0.0 0.00 0.00 0.00 89 1019.4
20260507083204 11 352 0.0 0.0 0.00 0.00 0.00 89 1019.2
20260507082700 11 337 0.0 0.0 0.00 0.00 0.00 89 1019.2
20260507082156 11 352 0.0 0.0 0.00 0.00 0.00 89 1019.4
20260507081653 11 352 0.0 0.0 0.00 0.00 0.00 89 1019.2
20260507081149 11 352 0.0 0.0 0.00 0.00 0.00 89 1019.2
20260507080646 11 44 0.0 0.0 0.00 0.00 0.00 88 1019.2
20260507080143 11 38 0.0 0.0 0.00 0.00 0.00 88 1019.1
20260507075643 11 353 0.0 0.0 0.00 0.00 0.00 88 1019.0
20260507075139 11 321 0.0 0.0 0.00 0.00 0.00 88 1019.3
20260507074636 11 321 0.0 0.0 0.00 0.00 0.00 88 1019.3
20260507074129 11 7 0.0 0.0 0.00 0.00 0.00 88 1019.3
20260507073625 11 1 0.0 0.0 0.00 0.00 0.00 88 1019.2
20260507073121 11 305 0.0 0.0 0.00 0.00 0.00 88 1019.1
20260507072619 11 355 0.0 1.6 0.00 0.00 0.00 87 1019.2
20260507072116 11 354 0.0 0.0 0.00 0.00 0.00 87 1018.8
20260507071613 11 318 1.6 1.6 0.00 0.00 0.00 87 1018.9
20260507071109 11 309 0.0 1.6 0.00 0.00 0.00 87 1019.2
20260507070606 11 292 3.2 3.2 0.00 0.00 0.00 86 1019.2
20260507070058 11 319 1.6 1.6 0.00 0.00 0.00 86 1018.9
20260507065554 11 316 0.0 1.6 0.00 0.00 0.00 86 1019.1
20260507065051 11 306 0.0 1.6 0.00 0.00 0.00 86 1019.1
20260507064549 12 301 3.2 3.2 0.00 0.00 0.00 86 1019.1
20260507064048 12 316 1.6 1.6 0.00 0.00 0.00 86 1019.1
20260507063544 12 312 1.6 1.6 0.00 0.00 0.00 86 1019.0
20260507063042 12 315 1.6 1.6 0.00 0.00 0.00 86 1018.8
20260507062538 12 296 3.2 3.2 0.00 0.00 0.00 86 1018.9
20260507062036 12 319 1.6 1.6 0.00 0.00 0.00 87 1018.9
20260507061533 12 323 0.0 0.0 0.00 0.00 0.00 87 1019.0
20260507061031 12 302 1.6 1.6 0.00 0.00 0.00 88 1018.8
20260507060529 12 302 1.6 1.6 0.00 0.00 0.00 88 1018.9
20260507060025 12 305 1.6 1.6 0.00 0.00 0.00 88 1018.9
20260507055520 13 2 3.2 8.0 0.00 0.00 0.00 88 1019.2
20260507055016 13 290 3.2 3.2 0.00 0.00 0.00 88 1018.8
20260507054513 13 337 1.6 3.2 0.00 0.00 0.00 88 1018.8
20260507054010 12 323 1.6 1.6 0.00 0.00 0.00 89 1019.0
20260507053508 12 68 0.0 0.0 0.00 0.00 0.00 92 1019.0
20260507053006 12 68 0.0 0.0 0.00 0.00 0.00 93 1019.0
20260507052503 12 68 0.0 0.0 0.00 0.00 0.00 94 1018.8
20260507052000 12 68 0.0 0.0 0.00 0.00 0.00 95 1018.7
20260507051458 12 68 0.0 0.0 0.00 0.00 0.00 94 1018.8
20260507050954 12 68 0.0 0.0 0.00 0.00 0.00 94 1018.7
20260507050450 12 68 0.0 0.0 0.00 0.00 0.00 94 1018.8
20260507045948 12 67 0.0 0.0 0.00 0.00 0.00 93 1018.8
20260507045444 12 68 0.0 1.6 0.00 0.00 0.00 92 1018.7
20260507044942 13 333 0.0 0.0 0.00 0.00 0.00 89 1018.5
20260507044438 13 334 0.0 0.0 0.00 0.00 0.00 88 1018.5
20260507043934 13 337 0.0 0.0 0.00 0.00 0.00 88 1018.9
20260507043431 13 337 0.0 0.0 0.00 0.00 0.00 88 1018.9
20260507042927 13 337 0.0 0.0 0.00 0.00 0.00 87 1018.7
20260507042424 13 337 0.0 0.0 0.00 0.00 0.00 86 1018.5
20260507041919 14 339 0.0 1.6 0.00 0.00 0.00 86 1018.7
20260507041416 14 347 0.0 1.6 0.00 0.00 0.00 85 1018.6
20260507040914 15 303 0.0 0.0 0.00 0.00 0.00 84 1018.6
20260507040409 15 303 0.0 0.0 0.00 0.00 0.00 83 1018.5
20260507035905 15 319 1.6 1.6 0.00 0.00 0.00 82 1018.7
20260507035402 15 328 0.0 1.6 0.00 0.00 0.00 82 1018.4
20260507034859 15 337 0.0 0.0 0.00 0.00 0.00 82 1018.3
20260507034356 15 347 1.6 1.6 0.00 0.00 0.00 82 1018.1
20260507033854 15 312 1.6 1.6 0.00 0.00 0.00 81 1018.2
20260507033352 15 292 3.2 3.2 0.00 0.00 0.00 80 1018.0
20260507032848 16 326 0.0 0.0 0.00 0.00 0.00 81 1018.2
20260507032345 16 334 1.6 1.6 0.00 0.00 0.00 81 1018.0
20260507031841 16 294 1.6 1.6 0.00 0.00 0.00 79 1017.9
20260507031338 16 308 1.6 3.2 0.00 0.00 0.00 79 1017.7
20260507030834 16 303 1.6 1.6 0.00 0.00 0.00 79 1017.7
20260507030332 17 311 1.6 1.6 0.00 0.00 0.00 79 1017.6
20260507025829 17 314 1.6 1.6 0.00 0.00 0.00 80 1017.7
20260507025326 17 329 1.6 1.6 0.00 0.00 0.00 79 1017.8
20260507024824 17 339 0.0 1.6 0.00 0.00 0.00 78 1017.7
20260507024321 17 359 0.0 0.0 0.00 0.00 0.00 77 1017.6
20260507023817 17 0 0.0 0.0 0.00 0.00 0.00 77 1017.5
20260507023313 17 359 0.0 0.0 0.00 0.00 0.00 76 1017.7
20260507022811 18 359 0.0 0.0 0.00 0.00 0.00 75 1017.7
20260507022307 18 359 0.0 0.0 0.00 0.00 0.00 74 1017.5
20260507021803 18 2 0.0 0.0 0.00 0.00 0.00 73 1017.7
20260507021259 18 9 0.0 0.0 0.00 0.00 0.00 73 1017.7
20260507020757 18 14 0.0 0.0 0.00 0.00 0.00 73 1017.8
20260507020253 18 47 0.0 0.0 0.00 0.00 0.00 73 1017.6
20260507015751 18 37 0.0 0.0 0.00 0.00 0.00 72 1017.6
20260507015248 18 36 1.6 1.6 0.00 0.00 0.00 72 1017.6
20260507014745 18 26 0.0 0.0 0.00 0.00 0.00 71 1017.8
20260507014241 18 323 0.0 0.0 0.00 0.00 0.00 70 1018.0
20260507013738 19 339 0.0 1.6 0.00 0.00 0.00 70 1017.8
20260507013235 19 306 0.0 0.0 0.00 0.00 0.00 70 1017.8
20260507012733 19 340 1.6 1.6 0.00 0.00 0.00 69 1017.8
20260507012228 19 290 0.0 0.0 0.00 0.00 0.00 69 1018.1
20260507011726 19 15 0.0 0.0 0.00 0.00 0.00 70 1017.9
20260507011222 19 332 1.6 1.6 0.00 0.00 0.00 70 1018.0
20260507010721 19 353 0.0 1.6 0.00 0.00 0.00 69 1017.9
20260507010218 19 11 0.0 0.0 0.00 0.00 0.00 68 1017.8
20260507005716 19 347 1.6 1.6 0.00 0.00 0.00 68 1017.8
20260507005212 19 345 4.8 4.8 0.00 0.00 0.00 68 1017.9
20260507004708 19 287 6.4 9.7 0.00 0.00 0.00 70 1017.7
20260507004206 19 331 4.8 4.8 0.00 0.00 0.00 69 1018.0
20260507003702 19 296 1.6 3.2 0.00 0.00 0.00 70 1017.7
20260507003158 19 292 4.8 9.7 0.00 0.00 0.00 70 1017.9
20260507002654 19 346 1.6 1.6 0.00 0.00 0.00 71 1018.0
20260507002150 19 315 1.6 3.2 0.00 0.00 0.00 70 1017.8
20260507001647 19 301 1.6 1.6 0.00 0.00 0.00 70 1017.7
20260507001144 19 336 4.8 4.8 0.00 0.00 0.00 70 1017.8
20260507000640 19 311 4.8 4.8 0.00 0.00 0.00 71 1017.7
20260507000136 19 296 6.4 8.0 0.00 0.00 0.00 70 1017.8
20260506235634 19 332 8.0 11.3 0.00 0.00 0.00 70 1017.7
20260506235133 19 296 3.2 4.8 0.00 0.00 0.00 71 1017.4
20260506234631 19 355 1.6 3.2 0.00 0.00 0.00 71 1017.9
20260506234128 19 240 1.6 1.6 0.00 0.00 0.00 73 1017.7
20260506233625 19 302 1.6 1.6 0.00 0.00 0.00 72 1017.5
20260506233122 18 349 6.4 12.9 0.00 0.00 0.00 71 1017.6
20260506232618 18 321 1.6 3.2 0.00 0.00 0.00 73 1017.8
20260506232114 19 272 4.8 8.0 0.00 0.00 0.00 72 1017.7
20260506231611 19 275 3.2 3.2 0.00 0.00 0.00 71 1017.6
20260506231109 18 330 4.8 4.8 0.00 0.00 0.00 72 1017.5
20260506230605 18 329 1.6 1.6 0.00 0.00 0.00 72 1017.6
20260506230103 18 338 3.2 3.2 0.00 0.00 0.00 72 1017.7
20260506225559 19 272 3.2 3.2 0.00 0.00 0.00 70 1017.8
20260506225055 19 189 1.6 1.6 0.00 0.00 0.00 72 1018.1
20260506224553 20 296 4.8 8.0 0.00 0.00 0.00 72 1018.1
20260506224049 19 2 4.8 4.8 0.00 0.00 0.00 72 1018.2
20260506223545 19 311 1.6 3.2 0.00 0.00 0.00 72 1018.3
20260506223042 20 272 1.6 3.2 0.00 0.00 0.00 72 1018.0
20260506222539 19 294 0.0 1.6 0.00 0.00 0.00 73 1018.0
20260506222035 20 1 4.8 8.0 0.00 0.00 0.00 69 1018.0